This is the latest recevied weather packets stored in our database for station/object VE9LJW. If no packets are shown the sender has not sent any weather packets the latest 10 day(s).
| Time | Temp. | Humidity | Pressure | Rain* | Wind** | Luminosity | Snow |
|---|---|---|---|---|---|---|---|
| 1778013324 | 21.67° C | 62% | 1001.9 hPa | 0 mm | - | 237 W/m² | - |
| 1778013021 | 22.22° C | 61% | 1001.8 hPa | 0 mm | - | 257 W/m² | - |
| 1778012717 | 22.78° C | 59% | 1002.1 hPa | 0 mm | - | 286 W/m² | - |
| 1778012413 | 22.22° C | 59% | 1001.9 hPa | 0 mm | - | 356 W/m² | - |
| 1778012110 | 22.78° C | 58% | 1001.5 hPa | 0 mm | - | 391 W/m² | - |
| 1778011808 | 22.78° C | 58% | 1001.7 hPa | 0 mm | - | 384 W/m² | - |
| 1778011505 | 22.78° C | 58% | 1001.8 hPa | 0 mm | - | 399 W/m² | - |
| 1778011201 | 22.78° C | 57% | 1001.8 hPa | 0 mm | - | 369 W/m² | - |
| 1778010898 | 23.33° C | 57% | 1001.7 hPa | 0 mm | - | 349 W/m² | - |
| 1778010595 | 23.33° C | 57% | 1001.8 hPa | 0 mm | - | 450 W/m² | - |
| 1778010293 | 23.89° C | 56% | 1001.9 hPa | 0 mm | - | 504 W/m² | - |
| 1778009993 | 23.89° C | 54% | 1001.9 hPa | 0 mm | - | 469 W/m² | - |
| 1778009690 | 23.89° C | 55% | 1001.8 hPa | 0 mm | - | 514 W/m² | - |
| 1778009388 | 23.33° C | 55% | 1002 hPa | 0 mm | - | 494 W/m² | - |
| 1778009086 | 23.89° C | 55% | 1002.1 hPa | 0 mm | - | 515 W/m² | - |
| 1778008783 | 23.89° C | 54% | 1001.9 hPa | 0 mm | - | 552 W/m² | - |
| 1778008482 | 23.89° C | 54% | 1002 hPa | 0 mm | - | 487 W/m² | - |
| 1778008178 | 24.44° C | 53% | 1002.1 hPa | 0 mm | - | 380 W/m² | - |
| 1778007873 | 25° C | 52% | 1002 hPa | 0 mm | - | 558 W/m² | - |
| 1778007569 | 24.44° C | 52% | 1002.4 hPa | 0 mm | - | 568 W/m² | - |
| 1778007267 | 25.56° C | 50% | 1002.1 hPa | 0 mm | - | 481 W/m² | - |
| 1778006963 | 25.56° C | 49% | 1002.2 hPa | 0 mm | - | 585 W/m² | - |
| 1778006660 | 25° C | 49% | 1002 hPa | 0 mm | - | 551 W/m² | - |
| 1778006357 | 25.56° C | 49% | 1002.1 hPa | 0 mm | - | 636 W/m² | - |
| 1778006053 | 25.56° C | 48% | 1002.4 hPa | 0 mm | - | 613 W/m² | - |
* Rain latest hour (hover to see other rain measurements)
** Current wind speed in m/s (hover to see current wind gust speed)